This demonstration page uses our WeatherBlox Daily Observations layout. Learn more.

Left ArrowRight Arrow

38.83388, -104.82136

Hourly Observations for May 7, 2022

Temp ( °F °C ) Dew Point ( °F °C ) Humidity (%) Winds ( mph kmh ) Pressure ( in mb ) Visibility ( mi km ) Precip ( " mm )
12:58 am 00:58 Partly Cloudy 62 16.4 23 -4.8 23 23 WNW 3 6 29.57 1001 10 16 0.00 0.00
1:58 am 01:58 Mostly Clear 61 16.2 21 -6.2 21 21 W 3 6 29.55 1001 10 16 0.00 0.00
2:58 am 02:58 Cloudy 63 17.2 19 -7.3 18 18 WNW 5 7 29.54 1000 10 16 0.00 0.00
3:58 am 03:58 Clear 62 16.9 18 -7.6 18 18 SW 5 7 29.52 1000 10 16 0.00 0.00
4:58 am 04:58 Clear 64 18 16 -9 15 15 S 6 9 29.52 1000 10 16 0.00 0.00
5:58 am 05:58 Sunny 61 16.2 17 -8.2 18 18 SSE 5 7 29.50 999 10 16 0.00 0.00
6:58 am 06:58 Sunny 64 17.9 17 -8.3 16 16 SE 10 17 29.53 1000 10 16 0.00 0.00
7:58 am 07:58 Sunny 69 20.6 18 -7.9 14 14 SSE 21 33 29.54 1000 10 16 0.00 0.00
8:58 am 08:58 Sunny 64 17.7 25 -3.7 23 23 SE 3 6 29.54 1000 10 16 0.00 0.00
9:58 am 09:58 Sunny 70 21.1 26 -3.4 19 19 SE 9 15 29.51 999 9 14 0.00 0.00
10:58 am 10:58 Sunny 75 23.8 30 -1.2 19 19 ESE 7 11 29.56 1001 10 16 0.00 0.00
11:01 am 11:01 Sunny 77 25 25 -4 14 14 S 12 19 29.56 1001 10 16 0.00 0.00
11:05 am 11:05 Sunny 79 26 21 -6 12 12 ESE 14 22 29.55 1001 10 16 0.00 0.00
11:33 am 11:33 Sunny 79 26 19 -7 11 11 S 15 24 29.56 1001 10 16 0.00 0.00
11:36 am 11:36 Sunny 79 26 19 -7 11 11 SSE 20 31 29.56 1001 10 16 0.00 0.00
11:58 am 11:58 Sunny 79 26.1 20 -6.7 11 11 SSE 18 30 29.55 1001 10 16 0.00 0.00
12:26 pm 12:26 Sunny 79 26 19 -7 11 11 SE 17 28 29.54 1000 10 16 0.00 0.00
12:58 pm 12:58 Sunny 80 26.7 19 -7.5 10 10 SSE 15 24 29.53 1000 10 16 0.00 0.00
1:26 pm 13:26 Sunny 82 28 19 -7 9 9 SSE 17 28 29.52 1000 10 16 0.00 0.00
1:58 pm 13:58 Sunny 80 26.8 19 -7.4 10 10 S 13 20 29.48 998 10 16 0.00 0.00
2:30 pm 14:30 Sunny 81 27 19 -7 10 10 S 16 26 29.48 998 10 16 0.00 0.00
2:38 pm 14:38 Partly Cloudy 81 27 19 -7 10 10 SE 21 33 29.47 998 10 16 0.00 0.00
2:58 pm 14:58 Partly Cloudy 80 26.8 19 -7.4 10 10 SE 26 43 29.46 998 10 16 0.00 0.00
3:58 pm 15:58 Sunny 81 27.3 19 -7 10 10 SSE 22 35 29.42 996 10 16 0.00 0.00
4:11 pm 16:11 Sunny 81 27 19 -7 10 10 S 21 33 29.41 996 10 16 0.00 0.00
4:13 pm 16:13 Sunny 81 27 19 -7 10 10 SSE 15 24 29.41 996 10 16 0.00 0.00
4:58 pm 16:58 Sunny 79 26 20 -6.8 11 11 S 14 22 29.38 995 10 16 0.00 0.00
5:58 pm 17:58 Mostly Sunny 78 25.5 21 -6 12 12 SSE 15 24 29.34 994 10 16 0.00 0.00
6:58 pm 18:58 Mostly Sunny 77 24.9 20 -6.5 12 12 S 15 24 29.31 993 10 16 0.00 0.00
7:58 pm 19:58 Clear 74 23.6 19 -7.5 12 12 S 12 19 29.30 992 10 16 0.00 0.00
8:58 pm 20:58 Mostly Cloudy 69 20.7 20 -6.9 15 15 WNW 9 15 29.31 992 10 16 0.00 0.00
9:22 pm 21:22 Mostly Clear 59 15 36 2 42 42 NW 20 31 29.35 994 10 16 0.00 0.00
9:58 pm 21:58 undefined 57 13.8 34 1.1 42 42 NW 26 43 29.31 993 10 16 0.00 0.00
10:59 pm 22:59 undefined N/A N/A N/A undefined N/A N/A N/A 0.00 0.00
11:58 pm 23:58 Cloudy 56 13.6 33 0.6 41 41 NW 15 24 29.29 992 10 16 0.00 0.00

Powered by AerisWeather